This demonstration page uses our WeatherBlox Daily Observations layout. Learn more.

Left ArrowRight Arrow

Hourly Observations for April 8, 2020

Temp ( °F °C ) Dew Point ( °F °C ) Humidity (%) Winds ( mph kmh ) Pressure ( in mb ) Visibility ( mi km ) Precip ( " mm )
12:54 am 00:54 Clear 50 10 36 2.2 59 59 NNW 3 6 29.74 1007 10 16.0934 0 0
1:54 am 01:54 Clear 43 6.1 36 2.2 76 76 NNW 5 7 29.74 1007 10 16.0934 0 0
2:54 am 02:54 Clear 45 7.2 36 2.2 71 71 NNW 5 7 29.74 1007 10 16.0934 0 0
3:54 am 03:54 Clear 46 7.8 37 2.8 71 71 Calm 29.74 1007 10 16.0934 0 0
4:54 am 04:54 Clear 43 6.1 37 2.8 80 80 Calm 29.76 1008 10 16.0934 0 0
5:54 am 05:54 Clear 47 8.3 37 2.8 69 69 NNW 6 9 29.74 1007 10 16.0934 0 0
6:54 am 06:54 Clear 49 9.4 38 3.3 66 66 undefined N/A 29.72 1006 10 16.0934 0 0
7:54 am 07:54 Sunny 50 10 39 3.9 66 66 Calm 29.74 1007 10 16.0934 0 0
8:54 am 08:54 Sunny 59 15 44 6.7 58 58 S 7 11 29.74 1007 10 16.0934 0 0
9:54 am 09:54 Sunny 69 20.6 33 0.6 26 26 NW 16 26 29.75 1008 10 16.0934 0 0
10:54 am 10:54 Sunny 70 21.1 39 3.9 32 32 NNW 25 41 29.78 1008 10 16.0934 0 0
11:54 am 11:54 Sunny 70 21.1 43 6.1 38 38 N 29 46 29.83 1010 10 16.0934 0 0
12:54 pm 12:54 Sunny 73 22.8 38 3.3 28 28 NNE 25 41 29.84 1011 10 16.0934 0 0
1:54 pm 13:54 Sunny 73 22.8 37 2.8 27 27 N 31 50 29.86 1011 10 16.0934 0 0
2:54 pm 14:54 Sunny 69 20.6 38 3.3 32 32 N 24 39 29.91 1013 10 16.0934 0 0
3:54 pm 15:54 Mostly Sunny 67 19.4 37 2.8 33 33 N 33 54 29.93 1014 10 16.0934 0 0
4:54 pm 16:54 Sunny 62 16.7 35 1.7 37 37 N 23 37 29.96 1015 10 16.0934 0 0
5:54 pm 17:54 Sunny 61 16.1 34 1.1 36 36 N 23 37 29.97 1015 10 16.0934 0 0
6:54 pm 18:54 Sunny 59 15 30 -1.1 33 33 N 20 31 29.99 1016 10 16.0934 0 0
7:54 pm 19:54 Sunny 56 13.3 27 -2.8 33 33 N 20 31 30.01 1016 10 16.0934 0 0
8:54 pm 20:54 Clear 51 10.6 27 -2.8 39 39 N 13 20 30.03 1017 10 16.0934 0 0
9:54 pm 21:54 Clear 50 10 24 -4.4 36 36 NNW 9 15 30.05 1018 10 16.0934 0 0
10:54 pm 22:54 Clear 40 4.4 25 -3.9 55 55 NNW 5 7 30.07 1018 10 16.0934 0 0
11:54 pm 23:54 Clear 41 5 25 -3.9 53 53 NNW 5 7 30.06 1018 10 16.0934 0 0

Powered by AerisWeather